| time (UTC) | temp F | wind direction | speed knots | gust knots | rain 1hr in | rain 24hr in | rain mn in | humidity % | barometer mb |
| 20260505184516 | 52 | 0.0 | 0.0 | 0.00 | 1.25 | 0.03 | 92 | 1014.9 | |
| 20260505183016 | 52 | 0.0 | 0.0 | 0.00 | 1.25 | 0.03 | 93 | 1014.9 | |
| 20260505181516 | 51 | 0.0 | 0.0 | 0.00 | 1.25 | 0.03 | 94 | 1014.7 | |
| 20260505180015 | 51 | 0.0 | 0.0 | 0.00 | 1.25 | 0.03 | 95 | 1014.7 | |
| 20260505174616 | 51 | 0.0 | 0.0 | 0.00 | 1.25 | 0.03 | 95 | 1014.7 | |
| 20260505173015 | 51 | 0.0 | 0.0 | 0.01 | 1.25 | 0.03 | 96 | 1014.6 | |
| 20260505171515 | 50 | 0.0 | 0.0 | 0.01 | 1.25 | 0.03 | 96 | 1014.5 | |
| 20260505170015 | 50 | 0.0 | 0.0 | 0.01 | 1.25 | 0.03 | 96 | 1014.4 | |
| 20260505164515 | 50 | 0.0 | 0.0 | 0.01 | 1.25 | 0.03 | 96 | 1014.3 | |
| 20260505163017 | 49 | 0.0 | 0.0 | 0.00 | 1.24 | 0.02 | 96 | 1014.5 | |
| 20260505161517 | 50 | 0.0 | 0.0 | 0.00 | 1.24 | 0.02 | 97 | 1014.4 | |
| 20260505153017 | 48 | 0.0 | 0.0 | 0.00 | 1.24 | 0.02 | 96 | 1014.0 | |
| 20260505151558 | 48 | 0.0 | 0.0 | 0.00 | 1.24 | 0.02 | 96 | 1013.8 | |
| 20260505124515 | 47 | 0.0 | 0.0 | 0.00 | 1.24 | 0.02 | 96 | 1012.9 | |
| 20260505123017 | 47 | 0.0 | 0.0 | 0.00 | 1.24 | 0.02 | 96 | 1012.8 | |
| 20260505121517 | 47 | 0.0 | 0.0 | 0.00 | 1.24 | 0.02 | 96 | 1012.9 | |
| 20260505120017 | 47 | 0.0 | 0.0 | 0.00 | 1.24 | 0.02 | 96 | 1012.8 | |
| 20260505114517 | 47 | 0.0 | 0.0 | 0.00 | 1.24 | 0.02 | 96 | 1013.0 | |
| 20260505113057 | 47 | 0.0 | 0.0 | 0.00 | 1.24 | 0.02 | 96 | 1013.0 | |
| 20260505111517 | 47 | 0.0 | 0.0 | 0.00 | 1.24 | 0.02 | 96 | 1013.1 | |
| 20260505101537 | 47 | 0.0 | 0.0 | 0.00 | 1.24 | 0.02 | 96 | 1013.1 | |
| 20260505100017 | 47 | 0.0 | 0.0 | 0.00 | 1.24 | 0.02 | 96 | 1012.9 | |
| 20260505094517 | 47 | 0.0 | 0.0 | 0.00 | 1.24 | 0.02 | 96 | 1012.9 | |
| 20260505093016 | 47 | 0.0 | 0.0 | 0.00 | 1.24 | 0.02 | 96 | 1013.2 | |
| 20260505091517 | 47 | 0.0 | 0.0 | 0.00 | 1.24 | 0.02 | 96 | 1013.4 | |
| 20260505090017 | 47 | 0.0 | 0.0 | 0.00 | 1.24 | 0.02 | 96 | 1013.3 | |
| 20260505084517 | 47 | 0.0 | 0.0 | 0.00 | 1.24 | 0.02 | 96 | 1013.9 | |
| 20260505083036 | 47 | 0.0 | 0.0 | 0.00 | 1.24 | 0.02 | 96 | 1014.0 | |
| 20260505081517 | 47 | 0.0 | 0.0 | 0.00 | 1.24 | 0.02 | 96 | 1013.9 | |
| 20260505080017 | 47 | 0.0 | 0.0 | 0.02 | 1.24 | 0.02 | 96 | 1014.1 | |
| 20260505074537 | 47 | 0.0 | 0.0 | 0.03 | 1.24 | 0.02 | 96 | 1013.9 | |
| 20260505073016 | 47 | 0.0 | 0.0 | 0.04 | 1.24 | 0.02 | 96 | 1013.6 | |
| 20260505071517 | 47 | 0.0 | 0.0 | 0.04 | 1.24 | 0.02 | 96 | 1014.0 | |
| 20260505070017 | 47 | 0.0 | 0.0 | 0.02 | 1.22 | 1.22 | 96 | 1013.5 | |
| 20260505064516 | 47 | 0.0 | 0.0 | 0.01 | 1.21 | 1.21 | 96 | 1014.4 | |
| 20260505063036 | 47 | 0.0 | 0.0 | 0.01 | 1.20 | 1.20 | 96 | 1013.8 | |
| 20260505061516 | 47 | 0.0 | 0.0 | 0.01 | 1.20 | 1.20 | 96 | 1013.7 | |
| 20260505060016 | 47 | 0.0 | 0.0 | 0.03 | 1.20 | 1.20 | 96 | 1014.2 | |
| 20260505054516 | 47 | 0.0 | 0.0 | 0.05 | 1.20 | 1.20 | 96 | 1013.8 | |
| 20260505053016 | 47 | 0.0 | 0.0 | 0.10 | 1.19 | 1.19 | 96 | 1013.9 | |
| 20260505051516 | 47 | 0.0 | 0.0 | 0.16 | 1.19 | 1.19 | 96 | 1014.2 | |
| 20260505041515 | 47 | 0.0 | 0.0 | 0.41 | 1.03 | 1.03 | 95 | 1014.1 | |
| 20260505040015 | 47 | 0.0 | 0.0 | 0.34 | 0.93 | 0.93 | 95 | 1014.3 | |
| 20260505034515 | 47 | 0.0 | 0.0 | 0.23 | 0.79 | 0.79 | 95 | 1013.6 | |
| 20260505033016 | 47 | 0.0 | 0.0 | 0.22 | 0.70 | 0.69 | 95 | 1014.1 | |
| 20260505031515 | 47 | 0.0 | 0.0 | 0.22 | 0.62 | 0.62 | 95 | 1014.4 | |
| 20260505030015 | 47 | 0.0 | 0.0 | 0.20 | 0.59 | 0.59 | 95 | 1014.3 | |
| 20260505024516 | 47 | 0.0 | 0.0 | 0.17 | 0.56 | 0.56 | 95 | 1014.2 | |
| 20260505023035 | 47 | 0.0 | 0.0 | 0.10 | 0.48 | 0.48 | 95 | 1014.6 | |
| 20260505021516 | 47 | 0.0 | 0.0 | 0.03 | 0.40 | 0.40 | 95 | 1013.9 | |
| 20260505020036 | 47 | 0.0 | 0.0 | 0.04 | 0.39 | 0.39 | 95 | 1013.5 | |
| 20260505014516 | 48 | 0.0 | 0.0 | 0.04 | 0.39 | 0.39 | 95 | 1012.7 | |
| 20260505013035 | 48 | 0.0 | 0.0 | 0.06 | 0.38 | 0.38 | 95 | 1013.0 | |
| 20260505011535 | 48 | 0.0 | 0.0 | 0.10 | 0.37 | 0.37 | 95 | 1013.5 | |
| 20260505010016 | 48 | 0.0 | 0.0 | 0.14 | 0.35 | 0.35 | 95 | 1013.5 | |
| 20260505004516 | 48 | 0.0 | 0.0 | 0.18 | 0.35 | 0.35 | 95 | 1013.7 | |
| 20260505003016 | 48 | 0.0 | 0.0 | 0.15 | 0.32 | 0.32 | 95 | 1013.4 | |
| 20260505001515 | 48 | 0.0 | 0.0 | 0.11 | 0.27 | 0.27 | 95 | 1013.9 | |
| 20260505000015 | 48 | 0.0 | 0.0 | 0.09 | 0.21 | 0.21 | 94 | 1013.5 | |
| 20260504234516 | 48 | 0.0 | 0.0 | 0.06 | 0.17 | 0.17 | 94 | 1013.7 | |
| 20260504233016 | 49 | 0.0 | 0.0 | 0.07 | 0.17 | 0.17 | 94 | 1013.6 | |
| 20260504231516 | 48 | 0.0 | 0.0 | 0.07 | 0.16 | 0.16 | 94 | 1013.1 | |
| 20260504230035 | 49 | 0.0 | 0.0 | 0.06 | 0.12 | 0.12 | 94 | 1014.3 | |
| 20260504224515 | 49 | 0.0 | 0.0 | 0.07 | 0.11 | 0.11 | 94 | 1013.5 | |
| 20260504223015 | 49 | 0.0 | 0.0 | 0.06 | 0.10 | 0.10 | 94 | 1013.7 | |
| 20260504221516 | 49 | 0.0 | 0.0 | 0.06 | 0.09 | 0.09 | 93 | 1013.9 | |
| 20260504220015 | 49 | 0.0 | 0.0 | 0.03 | 0.06 | 0.06 | 93 | 1013.9 | |
| 20260504214515 | 49 | 0.0 | 0.0 | 0.01 | 0.04 | 0.04 | 93 | 1013.9 | |
| 20260504213015 | 49 | 0.0 | 0.0 | 0.02 | 0.04 | 0.04 | 93 | 1013.8 | |
| 20260504211515 | 49 | 0.0 | 0.0 | 0.01 | 0.03 | 0.03 | 92 | 1014.1 | |
| 20260504210015 | 50 | 0.0 | 0.0 | 0.02 | 0.03 | 0.03 | 92 | 1014.0 | |
| 20260504204515 | 50 | 0.0 | 0.0 | 0.02 | 0.03 | 0.03 | 92 | 1014.0 | |
| 20260504203015 | 51 | 0.0 | 0.0 | 0.02 | 0.02 | 0.02 | 91 | 1014.0 | |
| 20260504201517 | 51 | 0.0 | 0.0 | 0.02 | 0.02 | 0.02 | 90 | 1014.3 | |
| 20260504200017 | 51 | 0.0 | 0.0 | 0.01 | 0.01 | 0.01 | 90 | 1014.4 | |
| 20260504194517 | 51 | 0.0 | 0.0 | 0.01 | 0.01 | 0.01 | 88 | 1014.3 | |
| 20260504193017 | 52 | 0.0 | 0.0 | 0.00 | 0.00 | 0.00 | 86 | 1014.1 | |
| 20260504191517 | 52 | 0.0 | 0.0 | 0.00 | 0.00 | 0.00 | 84 | 1014.7 | |
| 20260504190017 | 52 | 0.0 | 0.0 | 0.00 | 0.00 | 0.00 | 82 | 1014.5 |